Search your local weather  

 

Hazardous Weather Conditions

No active alerts for NEW YORK, NEW YORK

Current Conditions: NEW YORK, NEW YORK

Fair


64.0 F

Last Updated on Oct 23 2019, 4:51 pm EDT
Humidity: 32%
Wind Speed: 6.9 G 20.7 mph
Barometer 30.01 in
Dewpoint: 33.1 F
Visibility: 10.00 mi
Precip: --
Heat Index: NA
Wind Chill: NA
Current conditions at:

New York City, Central Park, NY (KNYC)

Lat: 40.78333 Lon: -73.96667

Local Radar Image active severe weather and emergency alerts image image weather storm and storm spotter reports image weather observation monitoring service image
Local
Radar
Active
Alerts
Storm Reports Weather
Monitoring

5 Day Forecast for NEW YORK, NEW YORK

Wednesday

Clear

High 67 °F
Wednesday
Night
Clear

Low 48 °F
Thursday

Clear

High 66 °F
Thursday
Night
Clear

Low 48 °F
Friday

Partly Sunny

High 65 °F
Friday
Night
Slight Chance of Rain
Low 48 °F
Saturday

Mostly Cloudy

High 61 °F
Saturday
Night
Rain Likely
Low 48 °F
Sunday

Rain Likely
High 61 °F

Sign-up For Email & Text Message Weather Alert Notification Services


Advertise Here

Observation History for NEW YORK, NEW YORK


Time Wind
(mph)
Vis
(mi)
Weather Precip (in) Temperature (F) Relative
Humidity
Wind
Chill
(°F)
Heat
Index
(°F)
Pressure
Air Dwpt altimeter
(in)
sea level
(mb)
4:51 pm EDT 6.9 G 20.7 10.00 Fair -- 64.0 33.1 32% NA NA 30.01 1015.2
3:51 pm EDT 6.9 G 19.6 10.00 Fair -- 64.0 30.9 29% NA NA 29.99 1014.5
2:51 pm EDT W 8.1 G 23.0 10.00 Fair -- 64.0 33.1 32% NA NA 29.97 1013.9
1:51 pm EDT W 8.1 G 19.6 10.00 Fair -- 65.0 36.0 34% NA NA 29.97 1014.0
12:51 pm EDT W 10.4 G 21.9 10.00 A Few Clouds -- 62.0 37.0 40% 61 NA 29.97 1013.9
11:51 am EDT W 9.2 G 18.4 10.00 Fair -- 63.0 41.0 45% 62 NA 29.97 1013.9
10:51 am EDT NW 5.8 10.00 Fair -- 61.0 46.9 60% 61 NA 29.96 1013.6
9:51 am EDT 6.9 10.00 Fair -- 59.0 46.9 64% 58 NA 29.96 1013.5
8:51 am EDT 6.9 10.00 Fair -- 57.0 48.9 74% 56 NA 29.93 1012.4
7:51 am EDT W 4.6 10.00 Fair -- 56.0 50.0 81% 55 NA 29.90 1011.4
6:51 am EDT 5.8 10.00 Fair -- 56.0 52.0 87% 55 NA 29.86 1010.2
5:51 am EDT W 6.9 10.00 Fair -- 58.0 54.0 87% 57 NA 29.83 1009.2
4:51 am EDT W 4.6 10.00 Fair -- 58.0 55.0 90% 58 NA 29.81 1008.6
3:51 am EDT W 3.5 10.00 Overcast -- 59.0 55.9 90% NA NA 29.79 1007.9
2:51 am EDT N 4.6 10.00 Overcast Trace 60.0 57.0 90% 60 NA 29.79 1007.8
1:51 am EDT W 5.8 G 17.3 7.00 Light Rain 00.03 61.0 60.1 97% 61 NA 29.79 1007.8
12:51 am EDT N 0.0 2.50 Light Rain Fog/Mist 00.14 63.0 62.1 97% NA NA 29.79 1007.8
11:51 pm EDT SE 9.2 4.00 Light Rain Fog/Mist 00.06 63.0 62.1 97% 62 NA 29.81 1008.4
10:51 pm EDT 5.8 4.00 Light Rain Fog/Mist 00.14 61.0 60.1 97% 61 NA 29.84 1009.4
9:51 pm EDT E 6.9 3.00 Rain Fog/Mist 00.07 60.0 57.9 93% 59 NA 29.86 1010.2
8:51 pm EDT 5.8 9.00 Light Rain 00.09 59.0 57.9 96% 58 NA 29.87 1010.7
7:51 pm EDT 3.5 1.75 Light Rain Fog/Mist 00.05 59.0 57.9 96% NA NA 29.92 1012.4
6:51 pm EDT 3.5 8.00 Overcast -- 59.0 57.0 93% NA NA 29.91 1011.9
5:51 pm EDT 4.6 2.00 Fog/Mist Trace 59.0 57.0 93% 59 NA 29.91 1012.0

Regional Weather Observation

New York, La Guardia Airport, NY (KLGA)

A Few Clouds
65.0 F

Newark, Newark International Airport, NJ (KEWR)

Fair
65.0 F

New York, Kennedy International Airport, NY (KJFK)

A Few Clouds
65.0 F

Teterboro, Teterboro Airport, NJ (KTEB)

Fair
65.0 F

Caldwell, Essex County Airport, NJ (KCDW)

Fair
66.0 F

Morristown Municipal, NJ (KMMU)

Clear
64.0 F

Advertise Here

Advertise Here